Regional Weather Roundup
Issued by NWS

Home | Current Version | Previous Version | Graphics & Text | Print | Product List | Glossary On
Versions: 1 2 3 4 5 6 7 8 9 10 11 12 13 14 15 16 17 18 19 20 21 22 23 24 25 26 27 28 29 30 31 32 33 34 35 36 37 38 39 40 41 42 43 44 45 46 47 48 49 50
000
ASUS43 KLOT 270609
RWRIL

ILLINOIS REGIONAL WEATHER ROUNDUP
NATIONAL WEATHER SERVICE CHICAGO/ROMEOVILLE IL
100 AM CDT THU JUL 27 2017

NOTE: "FAIR" INDICATES FEW OR NO CLOUDS BELOW 12,000 FEET WITH NO
SIGNIFICANT WEATHER AND/OR OBSTRUCTIONS TO VISIBILITY.

* THESE STATIONS ARE NOT UNDER NWS QUALITY CONTROL. THEY ALSO MAY NOT
  REPORT WEATHER SUCH AS PRECIPITATION OR FOG.

ILZ001-002-007-009-015-016-024-270700-
NORTHWEST ILLINOIS

CITY           SKY/WX    TMP DP  RH WIND       PRES   REMARKS
MOLINE         CLOUDY    74  71  91 CALM      29.95F
6HR MIN TEMP:  73; 6HR MAX TEMP:  74; 6HR PCP:  0.01;

STERLING*      CLOUDY    72  71  97 CALM      29.95F
SAVANNA*         N/A     69  69  99 CALM      29.96S FOG
$$

ILZ003-004-008-010-011-017-018-270700-
NORTH CENTRAL ILLINOIS

CITY           SKY/WX    TMP DP  RH WIND       PRES   REMARKS
ROCKFORD       CLOUDY    73  70  90 S3        29.95F
6HR MIN TEMP:  73; 6HR MAX TEMP:  82; 6HR PCP:  0.33;

FREEPORT*      CLOUDY    70  70 100 NW3       29.98R
ROCHELLE*      CLOUDY    70  70  99 SW3       29.95F FOG
DE KALB*       CLOUDY    70  70  99 SW6       29.96S
PERU*          CLOUDY    72  69  92 CALM      29.97S
$$

ILZ005-006-012>014-019>023-270700-
NORTHEAST ILLINOIS

CITY           SKY/WX    TMP DP  RH WIND       PRES   REMARKS
CHICAGO-OHARE  LGT RAIN  76  72  87 SW7       29.93F
6HR MIN TEMP:  76; 6HR MAX TEMP:  81; 6HR PCP:  0.03;

CHICAGO-MIDWAY LGT RAIN  77  73  87 SE3       29.94F FOG
6HR MIN TEMP:  77; 6HR MAX TEMP:  82; 6HR PCP:  0.07;

AURORA         CLOUDY    72  71  97 SW8       29.96S
6HR MIN TEMP:  71; 6HR MAX TEMP:  80; 6HR PCP:  0.72;

LANSING*       HVY RAIN  73  70  89 SE3       29.96R
JOLIET*        DRIZZLE   74  74  99 CALM      29.94F
WAUKEGAN       CLOUDY    73  72  96 CALM      29.92F FOG
6HR MIN TEMP:  73; 6HR MAX TEMP:  76; 6HR PCP: TRACE;

DUPAGE AIRPORT PTCLDY    73  73 100 CALM      29.94F FOG
6HR MIN TEMP:  73; 6HR MAX TEMP:  80; 6HR PCP:  0.21;

KANKAKEE*      CLOUDY    70  70 100 CALM      29.97S
WHEELING       CLOUDY    76  74  93 CALM      29.95F
6HR MIN TEMP:  76; 6HR MAX TEMP:  82; 6HR PCP:  0.01;

MORRIS*        CLOUDY    72  71  96 SW6       29.95S
ROMEOVILLE*    CLOUDY    73  70  92 CALM      29.95F
NORTHERLY ISL    N/A     74  70  87 SE1         N/A
$$

LMZ740>746-270700-
SOUTHERN LAKE MICHIGAN

STATION/POSITION SKY/WX   TEMP    WIND        PRES    VSBY  WAVE
                          AIR SEA DIR/SP/G                  HT/PER
                          (F)     (DEG/KT/KT) (MB)    (MI)  (FT/S)
SOUTHERN BUOY              73 70  170/  8/  8 1013.6F         0
WILMETTE HARBOR            73 72  170/  6/  8   N/A           1
HARRISON CRIB              76     170/  9/ 10   N/A
BURNHAM HARBOR             74                   N/A
CALUMET HARBOR             75     150/  8/ 13 1013.7S
BURNS HARBOR               77     160/  7/ 11 1014.6F
MICHIGAN CITY              76     140/  8/  9   N/A
MICHIGAN CITY 6N           76 75  160/  6/  8   N/A           1
ST. JOSEPH                 74 74  180/  6/  6 1013.9          0
$$

ILZ025>027-034>036-040-047-049-050-058-095>099-270700-
WEST-CENTRAL ILLINOIS

CITY           SKY/WX    TMP DP  RH WIND       PRES   REMARKS
QUINCY         CLOUDY    76  74  93 NE5       29.94F
GALESBURG*     CLOUDY    71  71 100 CALM      29.96F
MACOMB*        HVY RAIN  74  73  99 SW3       29.97F
JACKSONVILLE*  CLOUDY    74  73  98 E5        29.95F
PITTSFIELD*    MOCLDY    76  74  96 NE7       29.95F
$$

ILZ028>032-037-038-041>044-048-051>054-059>061-270700-
CENTRAL ILLINOIS

CITY           SKY/WX    TMP DP  RH WIND       PRES   REMARKS
PONTIAC        CLOUDY    73  72  98 N5        29.96F
BLOOMINGTON    CLOUDY    71  71 100 S6        29.97F
DECATUR        LGT RAIN  74  73  97 S3        29.98F
PEORIA         CLOUDY    73  73 100 SW5       29.95F
6HR MIN TEMP:  71; 6HR MAX TEMP:  84; 6HR PCP:  0.71;

LACON*         CLOUDY    71  71  99 CALM      29.94F
LINCOLN*       RAIN      74  74 100 CALM      29.97F
SPRINGFIELD    RAIN      75  74  96 E7        29.97F FOG
6HR MIN TEMP:  75; 6HR MAX TEMP:  87; 6HR PCP:  1.89;

TAYLORVILLE    TSTM      72  72 100 CALM      30.00R VSB 3/4
$$

ILZ033-039-045-046-055>057-062-063-270700-
EAST-CENTRAL ILLINOIS

CITY           SKY/WX    TMP DP  RH WIND       PRES   REMARKS
CHAMPAIGN      LGT RAIN  73  71  93 S7        29.98F
RANTOUL*       CLOUDY    74  73  99 W7        29.97F
MATTOON        RAIN      73  73 100 W3        29.99F FOG
PARIS*         TSTM      74  73  97 CALM      29.99F
$$

ILZ079-100>102-270700-
SOUTHWEST ILLINOIS

CITY           SKY/WX    TMP DP  RH WIND       PRES   REMARKS
ALTON          CLOUDY    76  76 100 E3        29.93F
BELLEVILLE     MOCLDY    77  75  92 S5        29.94F
CAHOKIA*       CLOUDY    78  75  90 S3        29.92F HX  81
SPARTA*        CLOUDY    79  75  87 S6        29.96F HX  83
$$

ILZ064>066-069>071-074>076-080>082-084>086-088>090-092>094-270700-
SOUTH-CENTRAL ILLINOIS

CITY           SKY/WX    TMP DP  RH WIND       PRES   REMARKS
CARBONDALE     CLOUDY    80  76  87 SW7       29.96F HX  86
6HR MIN TEMP:  79; 6HR MAX TEMP:  84;

CAIRO*         PTCLDY    81  74  80 SW7       29.99S HX  86
EFFINGHAM*     TSTM      72  72 100 NW10G17   30.01S
MARION         MOCLDY    81  79  94 SW6       29.98S HX  89
MT. VERNON     CLOUDY    78  76  93 SW3       29.95F HX  81
CENTRALIA*     CLOUDY    79  77  94 S3        29.95S HX  84
SALEM*         CLOUDY    80  75  86 CALM      29.97R HX  84
METROPOLIS*    PTCLDY    81  74  80 S6        29.99F HX  86
$$

ILZ067-068-072-073-078-083-087-091-270700-
SOUTHEAST ILLINOIS

CITY           SKY/WX    TMP DP  RH WIND       PRES   REMARKS
LAWRENCEVILLE  LGT RAIN  76  74  93 S5        29.97S
FLORA*         CLOUDY    78  76  93 CALM      29.97S HX  80
FAIRFIELD*     CLOUDY    76  76  99 CALM      29.94F
HARRISBURG*    PTCLDY    78  76  94 SW3       29.97F
ROBINSON*      RAIN      74  73  97 N3        29.99S
CARMI*         CLOUDY    74  74  99 S5        29.97S
$$

ABBREVIATIONS USED IN REMARKS
   TC - TEMPERATURE IN CELSIUS
  WCI - WIND CHILL INDEX
   HX - HEAT INDEX
  VSB - VISIBILITY
$$





USA.gov is the U.S. government's official web portal to all federal, state and local government web resources and services.